Location: Gollag?dem
(16.8053°N, 80.8024°E)
Time: 08:42:48
(UTC+00:00)

CZ-2C R/B - Pass Details

Date: 13 August 2020
Orbit: 784 x 870 km, 98.3° (Epoch: 19 September)

Event Time Altitude Azimuth Distance (km) Brightness Sun altitude
Rises 13:47:42 0° 21° (NNE) 3,284 5.8 -11.1°
Reaches altitude 10° 13:50:06 10° 27° (NNE) 2,363 5.0 -11.6°
Maximum altitude 13:55:06 47° 101° (E) 1,059 2.8 -12.7°
Drops below altitude 10° 14:00:12 10° 174° (S) 2,407 4.8 -13.9°
Sets 14:02:38 0° 180° (S) 3,352 5.6 -14.4°
